{"data":{"norad_id":66271,"intl_designator":"2025-247G","name":"STARLINK-35745","alt_names":[],"object_type":"PAYLOAD","status":"ACTIVE","operator":null,"country":"US","launch_date":"2025-10-31","launch_site_code":"AFWTR","launch_vehicle":null,"mission":null,"orbit_class":"UNKNOWN","rcs_meters":null,"size_class":null,"mass_kg":null,"dimensions":null,"purposes":["comms"],"wikipedia_slug":null,"has_3d_model":false,"image_url":null,"decayed_at":null,"tle_current":{"epoch":"2026-05-25T02:54:57.248352Z","epoch_age_seconds":61865,"freshness":"FRESH","line1":"1 66271U 25247G   26145.12149593  .00015709  00000+0  54122-3 0  9992","line2":"2 66271  53.1586 196.5730 0001662  73.4218 286.6965 15.30210121 32781","mean_motion":15.30210121,"eccentricity":0.0001662,"inclination_deg":53.1586,"raan_deg":196.573,"arg_perigee_deg":73.4218,"mean_anomaly_deg":286.6965,"bstar":0.00054122,"rev_number":3278,"period_min":94.104723281986,"perigee_km":474.04582801272,"apogee_km":476.3238721957,"semimajor_km":6853.3218501042,"source":"CELESTRAK","updated_at":"2026-05-25T13:38:21.160779Z"}}}